Date,TemperatureHighF,TemperatureAvgF,TemperatureLowF,DewpointHighF,DewpointAvgF,DewpointLowF,HumidityHigh,HumidityAvg,HumidityLow,PressureMaxIn,PressureMinIn,WindSpeedMaxMPH,WindSpeedAvgMPH,GustSpeedMaxMPH,PrecipitationSumIn
2013-8-1,97.9,84.2,72.6,69.0,63.7,53.3,83,53,33,30.02,29.88,12,4,20,0.00
2013-8-2,97.0,84.1,71.5,64.6,60.9,56.5,72,48,27,29.95,29.85,8,5,19,0.00
2013-8-3,95.6,82.6,69.7,67.5,63.5,56.8,89,56,28,29.98,29.91,11,6,22,0.00
2013-8-4,93.9,82.2,70.6,70.0,67.2,64.9,89,63,41,30.03,29.91,10,6,24,0.00
2013-8-5,95.5,82.6,69.4,70.6,65.1,60.3,86,59,32,30.01,29.85,11,6,21,0.00
2013-8-6,98.3,83.7,69.7,70.8,65.7,59.0,91,60,28,29.93,29.79,11,7,23,0.00
2013-8-7,99.6,85.1,70.2,70.6,65.4,58.3,91,57,30,29.89,29.75,11,6,20,0.00
2013-8-8,98.6,84.3,69.9,69.5,64.2,51.9,90,56,22,29.87,29.76,11,6,19,0.00
2013-8-9,97.8,84.4,69.7,69.8,59.9,51.0,90,50,22,29.96,29.84,11,5,23,0.00
2013-8-10,95.9,83.7,72.2,67.8,63.7,54.3,80,54,28,30.03,29.91,12,4,20,0.00
2013-8-11,92.9,79.1,70.1,69.4,66.5,63.1,89,68,38,30.07,29.94,15,4,25,0.01
2013-8-12,90.3,78.7,68.0,68.2,65.9,63.7,93,68,43,30.07,29.95,11,5,20,0.00
2013-8-13,95.1,82.8,70.2,69.0,64.6,61.0,87,58,33,30.02,29.88,13,6,22,0.00
2013-8-14,95.2,81.0,72.2,69.9,66.4,61.9,87,64,35,29.98,29.87,15,6,23,0.00
2013-8-15,90.8,77.7,69.5,70.8,66.0,62.5,86,69,40,29.99,29.89,18,5,33,0.00
2013-8-16,91.2,76.3,67.0,70.6,62.2,55.0,93,66,30,30.10,29.94,22,7,32,0.00
2013-8-17,90.5,78.9,66.2,68.7,59.6,53.0,89,55,29,30.05,29.93,15,6,24,0.00
2013-8-18,91.0,79.4,67.9,62.9,57.6,54.8,63,49,33,30.05,29.96,11,4,17,0.00
2013-8-19,91.0,79.4,68.5,61.5,59.0,55.3,71,51,36,30.05,29.91,9,4,17,0.00
2013-8-20,90.1,79.2,66.9,66.6,60.0,52.7,84,55,29,30.02,29.92,12,5,24,0.00
2013-8-21,91.6,78.0,68.3,68.4,65.3,60.1,89,68,37,30.06,29.94,10,6,23,0.00
2013-8-22,91.8,77.4,67.9,69.4,65.8,59.2,93,70,37,30.08,29.94,10,3,20,0.01
2013-8-23,91.8,79.6,70.1,69.8,65.6,62.3,90,65,40,30.03,29.90,9,3,18,0.00
2013-8-24,92.0,80.4,69.9,67.4,64.7,63.0,86,61,41,30.06,29.94,12,4,21,0.00
2013-8-25,91.7,80.8,70.0,68.4,65.6,61.4,89,62,37,30.08,29.99,14,6,26,0.00
2013-8-26,85.3,75.3,67.4,70.3,66.5,63.7,92,75,50,30.11,30.00,12,6,20,0.02
2013-8-27,81.1,73.2,68.4,71.3,67.5,65.1,95,84,61,30.12,30.02,11,5,18,0.87
2013-8-28,90.3,77.6,66.7,68.2,64.5,60.0,95,68,37,30.13,30.00,9,4,17,0.00
2013-8-29,92.0,80.5,68.5,68.3,63.4,59.0,91,60,34,30.11,29.97,7,3,15,0.00
2013-8-30,94.9,82.6,70.6,66.5,62.2,59.2,79,52,33,30.03,29.88,6,3,15,0.00
2013-8-31,95.0,83.0,71.0,67.5,63.7,61.8,80,55,35,29.94,29.80,7,4,14,0.00